Regional Weather Roundup
Issued by NWS

Home | Current Version | Previous Version | Text Only | Print | Product List | Glossary Off
Versions: 1 2 3 4 5 6 7 8 9 10 11 12 13 14 15 16 17 18 19 20 21 22 23 24 25 26 27

000
ASUS45 KCYS 230310
RWRWY

WYOMING REGIONAL WEATHER ROUNDUP
NATIONAL WEATHER SERVICE CHEYENNE WY
900 PM MDT TUE APR 22 2014

NOTE:  "FAIR" INDICATES FEW OR NO CLOUDS BELOW 12,000 FEET
WITH NO SIGNIFICANT WEATHER AND/OR OBSTRUCTIONS TO VISIBILITY.

WYZ001-230400-
YELLOWSTONE NATIONAL PARK

CITY           SKY/WX    TMP DP  RH WIND       PRES   REMARKS
LK YELLOWSTONE   N/A     36  32  85 CALM      29.66S
W YELLOWSTONE  NOT AVBL

$$
WYZ002>013-054>058-071-098>099-230400-
NORTHERN WYOMING

CITY           SKY/WX    TMP DP  RH WIND       PRES   REMARKS
JACKSON        CLOUDY    37  34  87 CALM      29.64R
CODY           MOCLDY    59  30  33 S13       29.42R
GREYBULL       MOCLDY    66  36  32 SE12      29.40S
WORLAND        MOCLDY    62  40  44 SE15      29.42F
SHERIDAN         N/A     52  27  37 S9          N/A
BUFFALO        MOCLDY    56  39  53 S13       29.52F
GILLETTE       CLOUDY    56  44  64 SE12      29.53F
HULETT         FAIR      61  43  51 S5        29.56
NEWCASTLE      FAIR      63  36  36 SE14G22   29.60

$$
WYZ014>020-022>026-101>103-230400-
CENTRAL WYOMING

CITY           SKY/WX    TMP DP  RH WIND       PRES   REMARKS
BIG PINEY      CLOUDY    44  37  76 SW18      29.66R
PINEDALE       LGT RAIN  46  34  61 SW26G36   29.66R
DUBOIS         MOCLDY    41  36  81 W5        29.59F
LANDER         CLOUDY    62  26  25 S26G38    29.50S
RIVERTON       CLOUDY    57  30  35 SW7       29.52S
CASPER         CLOUDY    63  23  21 S21       29.56F
DOUGLAS        CLOUDY    59  41  51 S12       29.61F

$$
WYZ021-027>030-104>119-230400-
SOUTHERN WYOMING

CITY           SKY/WX    TMP DP  RH WIND       PRES   REMARKS
EVANSTON       CLOUDY    39  34  82 W20       29.75R WCI  29
KEMMERER       CLOUDY    43  36  75 SW22G29   29.69R
FORT BRIDGER   RAIN      42  39  89 SW22G31   29.75R
ROCK SPRINGS   CLOUDY    58  23  26 SW18G28   29.61F
DIXON          FAIR      54  29  39 CALM      29.70F
RAWLINS        CLOUDY    56  24  29 S12       29.68F
SARATOGA       FAIR      55  25  30 S14G21    29.72F
LARAMIE        CLOUDY    50  28  42 S10       29.76F
CHEYENNE       CLOUDY    60  33  36 S6        29.73F
TORRINGTON     CLOUDY    62  40  44 SE9       29.61F
PINE BLUFFS    FAIR      59  36  41 CALM      29.70S

$$



USA.gov is the U.S. government's official web portal to all federal, state and local government web resources and services.